Tracking 19795 objects as of 20-Jul-2019
HD Live streaming from Space Station
objects crossing your sky now

USA 7

Track USA 7 now!
USA 7 is classified as:


NORAD ID: 15453
Int'l Code: 1984-129A
Perigee: 36,190.1 km
Apogee: 36,201.0 km
Inclination: 15.3 °
Period: 1,456.7 minutes
Semi major axis: 42566 km
RCS: Unknown
Launch date: December 22, 1984
Source: United States (US)
Launch site: AIR FORCE EASTERN TEST RANGE (AFETR)
aabbcc
Your satellite tracking list
Your tracking list is empty




NASA's NSSDC Master Catalog

Two Line Element Set (TLE):
1 15453U 84129A   19200.88070534 -.00000053  00000-0  00000+0 0  9997
2 15453  15.2589 342.9266 0001282   5.9526 178.0782  0.98855365  1072
Source of the keplerian elements: McCants